CW3453 Weather Reports


Display with metric or nautical units.
time (UTC)temp
F
wind
direction
speed
MPH
gust
MPH
rain 1hr
in
rain 24hr
in
rain mn
in
humidity
%
barometer
mb
20260505054448 72 185 0.0 3.0 0.00 0.00 0.00 63 1010.5
20260505054444 72 179 0.0 3.0 0.00 0.00 0.00 64 1010.5
20260505054437 72 238 1.0 5.0 0.00 0.00 0.00 63 1010.5
20260505054434 72 216 2.0 5.0 0.00 0.00 0.00 63 1010.5
20260505054426 72 157 0.0 2.0 0.00 0.00 0.00 63 1010.5
20260505054423 72 195 0.0 2.0 0.00 0.00 0.00 63 1010.5
20260505054418 72 256 0.0 4.0 0.00 0.00 0.00 62 1010.5
20260505054414 73 265 1.0 4.0 0.00 0.00 0.00 62 1010.5
20260505054406 73 197 0.0 4.0 0.00 0.00 0.00 62 1010.5
20260505054359 73 217 0.0 5.0 0.00 0.00 0.00 61 1010.5
20260505054357 73 209 1.0 7.0 0.00 0.00 0.00 61 1010.6
20260505054353 73 240 3.0 7.0 0.00 0.00 0.00 61 1010.6
20260505054351 73 190 0.0 5.0 0.00 0.00 0.00 61 1010.6
20260505054343 73 184 0.0 6.0 0.00 0.00 0.00 59 1010.7
20260505054340 74 169 2.0 6.0 0.00 0.00 0.00 59 1010.8
20260505054331 74 149 1.0 7.0 0.00 0.00 0.00 58 1010.8
20260505054328 74 246 3.0 8.0 0.00 0.00 0.00 58 1010.9
20260505054322 75 180 0.0 5.0 0.00 0.00 0.00 58 1010.8
20260505002511 75 188 1.0 8.0 0.00 0.00 0.00 56 1010.8
20260505002011 76 173 2.0 10.0 0.00 0.00 0.00 56 1010.9
20260505001520 76 138 2.0 10.0 0.00 0.00 0.00 55 1010.9
20260505001012 76 180 2.0 9.0 0.00 0.00 0.00 55 1011.0
20260505000510 76 149 0.0 0.0 0.00 0.00 0.00 56 1011.0
20260505000021 76 209 2.0 6.0 0.00 0.00 0.00 56 1011.0
20260504235505 76 160 1.0 6.0 0.00 0.00 0.00 54 1011.0
20260504235007 76 239 0.0 6.0 0.00 0.00 0.00 55 1011.0
20260504234535 76 188 1.0 5.0 0.00 0.00 0.00 55 1010.9
20260504234532 76 202 1.0 7.0 0.00 0.00 0.00 54 1010.9
20260504234529 76 191 2.0 7.0 0.00 0.00 0.00 53 1011.0
20260504234501 75 227 3.0 6.0 0.00 0.00 0.00 53 1011.0
20260504234453 75 110 0.0 6.0 0.00 0.00 0.00 54 1011.1
20260504230012 75 161 1.0 7.0 0.00 0.00 0.00 54 1011.2
20260504225502 75 244 2.0 7.0 0.00 0.00 0.00 53 1011.3
20260504225005 75 275 0.0 3.0 0.00 0.00 0.00 54 1011.3
20260504224513 75 19 0.0 5.0 0.00 0.00 0.00 54 1011.3
20260504224004 75 182 1.0 5.0 0.00 0.00 0.00 56 1011.4
20260504223504 74 205 0.0 5.0 0.00 0.00 0.00 53 1011.4
20260504223011 74 162 1.0 5.0 0.00 0.00 0.00 55 1011.5
20260504222504 74 152 0.0 6.0 0.00 0.00 0.00 55 1011.6
20260504222005 74 237 1.0 6.0 0.00 0.00 0.00 56 1011.8
20260504221513 73 202 1.0 6.0 0.00 0.00 0.00 55 1011.8
20260504221006 73 156 2.0 6.0 0.00 0.00 0.00 57 1012.0
20260504220507 73 193 0.0 4.0 0.00 0.00 0.00 57 1012.0
20260504220012 73 242 1.0 6.0 0.00 0.00 0.00 59 1012.0
20260504215505 72 121 3.0 6.0 0.00 0.00 0.00 58 1012.1
20260504215004 72 261 1.0 6.0 0.00 0.00 0.00 58 1012.1
20260504214513 72 212 2.0 6.0 0.00 0.00 0.00 59 1012.1
20260504214005 72 146 1.0 6.0 0.00 0.00 0.00 59 1012.2
20260504213509 72 149 2.0 6.0 0.00 0.00 0.00 57 1012.1
20260504213014 72 54 2.0 8.0 0.00 0.00 0.00 58 1012.3
20260504212509 71 167 2.0 8.0 0.00 0.00 0.00 62 1012.4
20260504212007 70 86 0.0 8.0 0.00 0.00 0.00 63 1012.4
20260504211513 70 204 0.0 6.0 0.00 0.00 0.00 62 1012.5
20260504211003 70 191 3.0 6.0 0.00 0.00 0.00 62 1012.7
20260504210503 69 209 0.0 3.0 0.00 0.00 0.00 62 1012.7
20260504210019 70 170 0.0 5.0 0.00 0.00 0.00 61 1012.8
20260504205504 70 173 1.0 9.0 0.00 0.00 0.00 60 1012.9
20260504205003 70 194 2.0 9.0 0.00 0.00 0.00 62 1013.0
20260504204515 69 60 1.0 5.0 0.00 0.00 0.00 62 1013.1
20260504204004 69 107 0.0 3.0 0.00 0.00 0.00 62 1013.2
20260504203504 69 158 0.0 6.0 0.00 0.00 0.00 61 1013.3
20260504203019 69 229 2.0 6.0 0.00 0.00 0.00 60 1013.3
20260504202505 69 164 0.0 5.0 0.00 0.00 0.00 64 1013.3
20260504202004 69 220 1.0 2.0 0.00 0.00 0.00 62 1013.3
20260504201516 68 112 0.0 6.0 0.00 0.00 0.00 62 1013.4
20260504201008 68 237 0.0 6.0 0.00 0.00 0.00 62 1013.4
20260504200507 68 177 1.0 4.0 0.00 0.00 0.00 62 1013.4
20260504200016 68 235 0.0 6.0 0.00 0.00 0.00 63 1013.4
20260504195507 68 158 2.0 8.0 0.00 0.00 0.00 62 1013.5
20260504195008 67 215 2.0 8.0 0.00 0.00 0.00 67 1013.5
20260504194510 67 188 1.0 6.0 0.00 0.00 0.00 67 1013.5
20260504194005 67 169 0.0 6.0 0.00 0.00 0.00 69 1013.6
20260504193506 66 132 1.0 8.0 0.00 0.00 0.00 65 1013.6
20260504193021 66 138 3.0 8.0 0.00 0.00 0.00 69 1013.5
20260504192506 65 198 1.0 6.0 0.00 0.00 0.00 67 1013.7
20260504192010 65 110 1.0 6.0 0.00 0.00 0.00 67 1013.7
20260504191523 65 113 2.0 6.0 0.00 0.00 0.00 69 1013.7
20260504191008 64 178 1.0 5.0 0.00 0.00 0.00 69 1013.8
20260504190503 64 211 1.0 5.0 0.00 0.00 0.00 69 1013.8
20260504190025 63 127 1.0 6.0 0.00 0.00 0.00 71 1013.8
20260504185507 63 190 2.0 6.0 0.00 0.00 0.00 69 1013.9
20260504185003 63 169 0.0 6.0 0.00 0.00 0.00 70 1014.0
20260504184524 62 109 0.0 7.0 0.00 0.00 0.00 72 1014.1
20260504184008 62 153 3.0 7.0 0.00 0.00 0.00 72 1014.2
20260504183511 62 174 3.0 6.0 0.00 0.00 0.00 72 1014.1
20260504183020 62 157 2.0 7.0 0.00 0.00 0.00 73 1014.0
20260504182512 61 183 0.0 7.0 0.00 0.00 0.00 73 1013.9
20260504182011 61 164 0.0 4.0 0.00 0.00 0.00 75 1013.8
20260504181521 61 264 0.0 2.0 0.00 0.00 0.00 73 1013.8
20260504181007 61 126 0.0 3.0 0.00 0.00 0.00 72 1013.8
20260504180513 61 202 1.0 5.0 0.00 0.00 0.00 74 1014.0
20260504180019 61 244 0.0 5.0 0.00 0.00 0.00 73 1014.0
20260504175504 61 130 0.0 3.0 0.00 0.00 0.00 74 1014.0
20260504175010 60 119 0.0 3.0 0.00 0.00 0.00 75 1014.0
20260504174510 60 153 0.0 5.0 0.00 0.00 0.00 74 1014.1
20260504174006 60 84 1.0 5.0 0.00 0.00 0.00 75 1014.0
20260504173508 60 116 1.0 5.0 0.00 0.00 0.00 75 1014.1
20260504173017 59 133 1.0 7.0 0.00 0.00 0.00 75 1014.0
20260504172502 59 177 0.0 7.0 0.00 0.00 0.00 77 1014.0
20260504172006 59 128 1.0 7.0 0.00 0.00 0.00 75 1013.9
20260504171517 59 72 1.0 4.0 0.00 0.00 0.00 75 1013.8
20260504171010 59 144 1.0 7.0 0.00 0.00 0.00 76 1013.9
20260504170507 59 135 1.0 7.0 0.00 0.00 0.00 76 1013.9
20260504151013 57 147 0.0 3.0 0.00 0.00 0.00 79 1013.5
20260504150507 57 108 0.0 3.0 0.00 0.00 0.00 79 1013.4
20260504130510 54 166 0.0 3.0 0.00 0.00 0.00 84 1011.8
20260504110503 58 147 1.0 7.0 0.00 0.00 0.00 74 1010.1